STARLINK-33746, 63446

Orbit data source: Space-Track

STARLINK-33746, 63446 is a payload satellite owned by SpaceX/Seattle (US) in LEO that was launched on Fri, 04 Apr 2025 UTC via an FALCON 9 launch vehicle from the Air Force Western Test Range (AFWTR). Payload-class satellites include a variety of spacecraft equipped with specific instruments for various scientific and technological missions. These include communications satellites like Starlink; space stations such as the ISS; scientific satellites like the Hubble; Earth observation satellites from companies like Planet Labs, Umbra, and HawkEye 360; GPS; miniature CubeSats for education and research; and military/defense satellites.

Loading next visibility...
Identifier
63446, 2025-069P
Orbit
LEO
Country
Flag of USUS
Related business
Manufacturer
SpaceX/Seattle
Mission
Operational Commercial Communications
Bus & Motor
STARLINK V2MO, Unknown motor
Mass
575 kg wet, ~530 kg dry
Launch date (UTC)
2025-04-04 (8 months ago)
Launch vehicle
FALCON 9
Launch site
Air Force Western Test Range (AFWTR)
Object type
Payload
Rocket body
Debris
Shape & HBR
Box + 2 Pan, 17.7 m
Radar Cross Section
36.964 m², Large (>1 m²)

Expand to show TLE details & history
Last TLE update: 17 hours ago

TLE from 17 hours ago
0 STARLINK-33746
1 63446U 25069P   25348.90501865  .00016860  00000-0  57975-3 0  9998
2 63446  53.1589 176.3042 0001527  77.7063 282.4109 15.30219293 40379
Epoch: 2025-12-14T21:43Z
TLE epoch observation values (Epoch: 2025-12-14T21:43:13.611Z)
Latitude
0.00001°
Longitude
126.68626°
Altitude
475.832 km
Speed
7.629 km/s
True Right ascension
11h 45m 13s
True Declination
0° 00' 00"
Sunlit
Object was in daylight at epoch
Visualization orbit readout
Latitude
Unknown
Longitude
Unknown
Altitude
Unknown
Speed
Unknown
Apparent Right ascension
Unknown
Apparent Declination
Unknown
Sunlit
N/A
Visualization observer readout
Local Sidereal Time
13:19:51
Azimuth
Unknown
Elevation
Unknown
Doppler factor
Unknown
Orbital elements
Apogee altitude
476.461 km
Perigee altitude
474.368 km
Semi-major axis
6,853.551 km
Eccentricity
0.00015
Inclination
53.1589°
RAAN
176.3042°
Arg. of periapsis
77.7063°
True anomaly
282.39381°
Mean anomaly
282.4109°
Eccentric anomaly
282.40236°
Mean motion
3.82534 °/min
Orbital period
94.11 mins
BSTAR
0.00057975
Loading maneuver chart data...
Computing Atmospheric mass density...
Loading historical data...
Loading historical data...
Loading historical data...
Loading historical data...
Loading historical data...
Loading historical data...
Loading historical data...

Documentation

Showing up to 5 results
|